Time,TemperatureF,DewpointF,PressureIn,WindDirection,WindDirectionDegrees,WindSpeedMPH,WindSpeedGustMPH,Humidity,HourlyPrecipIn,Conditions,Clouds,dailyrainin,SoftwareType,DateUTC
2013-02-04 00:01:00,26.8,-3.5,29.72,West,274,2.7,4.0,26,0.00,,CLR,0.00,VWS V14.01,2013-02-04 05:01:00,
2013-02-04 00:02:00,26.8,-3.5,29.72,WSW,257,0.0,2.7,26,0.00,,CLR,0.00,VWS V14.01,2013-02-04 05:02:00,
2013-02-04 00:03:00,26.8,-3.5,29.72,West,263,0.0,0.0,26,0.00,,CLR,0.00,VWS V14.01,2013-02-04 05:03:00,
2013-02-04 00:08:00,26.6,-3.7,29.72,ESE,107,0.0,0.0,26,0.00,,CLR,0.00,VWS V14.01,2013-02-04 05:08:00,
2013-02-04 00:13:00,26.4,-3.8,29.72,ESE,107,0.0,0.0,26,0.00,,CLR,0.00,VWS V14.01,2013-02-04 05:13:00,
2013-02-04 00:18:00,26.2,-4.0,29.72,NNW,334,4.9,4.9,26,0.00,,CLR,0.00,VWS V14.01,2013-02-04 05:18:00,
2013-02-04 00:23:00,26.1,-4.1,29.72,WSW,247,2.7,2.7,26,0.00,,CLR,0.00,VWS V14.01,2013-02-04 05:23:00,
2013-02-04 00:29:00,25.9,-4.3,29.72,NNE,23,5.4,5.4,26,0.00,,CLR,0.00,VWS V14.01,2013-02-04 05:29:00,
2013-02-04 00:34:00,26.1,-4.1,29.72,NNW,343,0.0,0.0,26,0.00,,CLR,0.00,VWS V14.01,2013-02-04 05:34:00,
2013-02-04 00:39:00,25.7,-4.4,29.72,North,2,3.1,3.1,26,0.00,,CLR,0.00,VWS V14.01,2013-02-04 05:39:00,
2013-02-04 00:44:00,25.9,-4.3,29.72,WNW,300,5.8,5.8,26,0.00,,CLR,0.00,VWS V14.01,2013-02-04 05:44:00,
2013-02-04 00:49:00,25.9,-4.3,29.72,WSW,250,5.8,5.8,26,0.00,,CLR,0.00,VWS V14.01,2013-02-04 05:49:00,
2013-02-04 00:54:00,25.9,-4.3,29.72,NW,311,3.1,3.1,26,0.00,,CLR,0.00,VWS V14.01,2013-02-04 05:54:00,
2013-02-04 00:59:00,25.7,-4.4,29.72,North,9,3.1,3.1,26,0.00,,CLR,0.00,VWS V14.01,2013-02-04 05:59:00,
2013-02-04 01:04:00,25.5,-4.6,29.72,NNW,342,3.1,3.1,26,0.00,,CLR,0.00,VWS V14.01,2013-02-04 06:04:00,
2013-02-04 01:09:00,25.3,-4.7,29.72,North,6,2.7,2.7,26,0.00,,CLR,0.00,VWS V14.01,2013-02-04 06:09:00,
2013-02-04 01:14:00,25.3,-4.7,29.72,North,0,7.2,7.2,26,0.00,,CLR,0.00,VWS V14.01,2013-02-04 06:14:00,
2013-02-04 01:20:00,25.3,-4.7,29.72,North,353,4.5,4.5,26,0.00,,CLR,0.00,VWS V14.01,2013-02-04 06:20:00,
2013-02-04 01:25:00,25.3,-4.7,29.72,NW,321,6.3,6.3,26,0.00,,CLR,0.00,VWS V14.01,2013-02-04 06:25:00,
2013-02-04 01:30:00,25.3,-4.7,29.72,NW,310,0.0,0.0,26,0.00,,CLR,0.00,VWS V14.01,2013-02-04 06:30:00,
2013-02-04 01:35:00,25.2,-4.9,29.72,NW,306,3.1,3.1,26,0.00,,CLR,0.00,VWS V14.01,2013-02-04 06:35:00,
2013-02-04 01:40:00,25.2,-4.9,29.72,North,357,2.7,2.7,26,0.00,,CLR,0.00,VWS V14.01,2013-02-04 06:40:00,
2013-02-04 01:45:00,25.0,-5.1,29.72,NNE,30,5.4,5.4,26,0.00,,CLR,0.00,VWS V14.01,2013-02-04 06:45:00,
2013-02-04 01:50:00,25.2,-4.9,29.72,North,353,0.0,0.0,26,0.00,,CLR,0.00,VWS V14.01,2013-02-04 06:50:00,
2013-02-04 01:55:00,25.0,-5.1,29.72,NE,50,0.0,0.0,26,0.00,,CLR,0.00,VWS V14.01,2013-02-04 06:55:00,
2013-02-04 02:00:00,25.0,-5.1,29.72,NNE,17,2.7,2.7,26,0.00,,CLR,0.00,VWS V14.01,2013-02-04 07:00:00,
2013-02-04 02:06:00,25.0,-6.7,29.72,ENE,69,2.7,2.7,24,0.00,,CLR,0.00,VWS V14.01,2013-02-04 07:06:00,
2013-02-04 02:11:00,24.8,-6.9,29.72,West,276,4.0,4.0,24,0.00,,CLR,0.00,VWS V14.01,2013-02-04 07:11:00,
2013-02-04 02:16:00,24.8,-6.9,29.72,NNW,332,0.0,0.0,24,0.00,,CLR,0.00,VWS V14.01,2013-02-04 07:16:00,
2013-02-04 02:21:00,24.4,-4.7,29.72,NNW,332,0.0,0.0,27,0.00,,CLR,0.00,VWS V14.01,2013-02-04 07:21:00,
2013-02-04 02:26:00,24.1,-5.1,29.72,NNW,332,0.0,0.0,27,0.00,,CLR,0.00,VWS V14.01,2013-02-04 07:26:00,
2013-02-04 02:31:00,24.1,-5.1,29.72,SE,136,0.0,0.0,27,0.00,,CLR,0.00,VWS V14.01,2013-02-04 07:31:00,
2013-02-04 02:36:00,23.7,-5.4,29.72,NW,321,0.0,0.0,27,0.00,,CLR,0.00,VWS V14.01,2013-02-04 07:36:00,
2013-02-04 02:41:00,23.5,-4.0,29.72,NW,321,0.0,0.0,29,0.00,,CLR,0.00,VWS V14.01,2013-02-04 07:41:00,
2013-02-04 02:46:00,23.4,-4.2,29.72,North,0,0.0,0.0,29,0.00,,CLR,0.00,VWS V14.01,2013-02-04 07:46:00,
2013-02-04 02:52:00,23.2,-4.3,29.72,NNW,327,0.0,0.0,29,0.00,,CLR,0.00,VWS V14.01,2013-02-04 07:52:00,
2013-02-04 02:57:00,23.0,-3.8,29.72,NNW,327,0.0,0.0,30,0.00,,CLR,0.00,VWS V14.01,2013-02-04 07:57:00,
2013-02-04 03:02:00,23.0,-3.8,29.72,WNW,303,0.0,0.0,30,0.00,,CLR,0.00,VWS V14.01,2013-02-04 08:02:00,
2013-02-04 03:07:00,23.5,-5.5,29.72,NW,310,5.4,5.4,27,0.00,,CLR,0.00,VWS V14.01,2013-02-04 08:07:00,
2013-02-04 03:12:00,23.7,-5.4,29.72,NNW,342,0.0,0.0,27,0.00,,CLR,0.00,VWS V14.01,2013-02-04 08:12:00,
2013-02-04 03:17:00,23.7,-5.4,29.72,North,8,2.7,4.9,27,0.00,,CLR,0.00,VWS V14.01,2013-02-04 08:17:00,
2013-02-04 03:22:00,24.3,-7.3,29.72,NW,305,0.0,0.0,24,0.00,,CLR,0.00,VWS V14.01,2013-02-04 08:22:00,
2013-02-04 03:27:00,24.4,-7.2,29.72,NNW,340,0.0,0.0,24,0.00,,CLR,0.00,VWS V14.01,2013-02-04 08:27:00,
2013-02-04 03:32:00,24.3,-7.3,29.72,NNW,340,0.0,0.0,24,0.00,,CLR,0.00,VWS V14.01,2013-02-04 08:32:00,
2013-02-04 03:37:00,24.4,-7.2,29.72,NW,312,2.2,2.2,24,0.00,,CLR,0.00,VWS V14.01,2013-02-04 08:37:00,
2013-02-04 03:42:00,24.3,-7.3,29.72,NW,316,0.0,0.0,24,0.00,,CLR,0.00,VWS V14.01,2013-02-04 08:42:00,
2013-02-04 03:47:00,24.4,-7.2,29.75,NE,46,0.0,2.2,24,0.00,,CLR,0.00,VWS V14.01,2013-02-04 08:47:00,
2013-02-04 03:53:00,24.4,-7.2,29.75,NW,319,0.0,0.0,24,0.00,,CLR,0.00,VWS V14.01,2013-02-04 08:53:00,
2013-02-04 03:58:00,24.4,-7.2,29.75,NE,48,0.0,0.0,24,0.00,,CLR,0.00,VWS V14.01,2013-02-04 08:58:00,
2013-02-04 04:03:00,24.4,-7.2,29.75,North,353,0.0,0.0,24,0.00,,CLR,0.00,VWS V14.01,2013-02-04 09:03:00,
2013-02-04 04:08:00,24.4,-7.2,29.75,NE,52,0.0,0.0,24,0.00,,CLR,0.00,VWS V14.01,2013-02-04 09:08:00,
2013-02-04 04:13:00,25.3,-6.4,29.75,North,0,2.2,2.2,24,0.00,,CLR,0.00,VWS V14.01,2013-02-04 09:13:00,
2013-02-04 04:18:00,25.2,-6.6,29.75,North,0,0.0,0.0,24,0.00,,CLR,0.00,VWS V14.01,2013-02-04 09:18:00,
2013-02-04 04:23:00,25.3,-6.4,29.75,SW,215,0.0,4.0,24,0.00,,CLR,0.00,VWS V14.01,2013-02-04 09:23:00,
2013-02-04 04:28:00,25.5,-6.2,29.75,North,353,0.0,0.0,24,0.00,,CLR,0.00,VWS V14.01,2013-02-04 09:28:00,
2013-02-04 04:33:00,25.5,-6.2,29.75,SSE,166,0.0,0.0,24,0.00,,CLR,0.00,VWS V14.01,2013-02-04 09:33:00,
2013-02-04 04:38:00,25.3,-6.4,29.75,ESE,111,0.0,0.0,24,0.00,,CLR,0.00,VWS V14.01,2013-02-04 09:38:00,
2013-02-04 04:44:00,25.3,-6.4,29.75,ESE,111,0.0,0.0,24,0.00,,CLR,0.00,VWS V14.01,2013-02-04 09:44:00,
2013-02-04 04:49:00,25.3,-6.4,29.75,North,353,0.0,0.0,24,0.00,,CLR,0.00,VWS V14.01,2013-02-04 09:49:00,
2013-02-04 04:54:00,25.3,-6.4,29.75,WSW,245,0.0,0.0,24,0.00,,CLR,0.00,VWS V14.01,2013-02-04 09:54:00,
2013-02-04 04:59:00,25.3,-6.4,29.75,NNE,29,0.0,0.0,24,0.00,,CLR,0.00,VWS V14.01,2013-02-04 09:59:00,
2013-02-04 05:04:00,25.3,-6.4,29.75,East,88,0.0,0.0,24,0.00,,CLR,0.00,VWS V14.01,2013-02-04 10:04:00,
2013-02-04 05:09:00,25.3,-6.4,29.75,North,357,0.0,0.0,24,0.00,,CLR,0.00,VWS V14.01,2013-02-04 10:09:00,
2013-02-04 05:19:00,25.3,-6.4,29.75,WNW,284,0.0,0.0,24,0.00,,CLR,0.00,VWS V14.01,2013-02-04 10:19:00,
2013-02-04 05:24:00,26.1,-5.8,29.75,NE,55,4.0,4.0,24,0.00,,CLR,0.00,VWS V14.01,2013-02-04 10:24:00,
2013-02-04 05:29:00,26.4,-5.5,29.75,WNW,293,0.0,0.0,24,0.00,,CLR,0.00,VWS V14.01,2013-02-04 10:29:00,
2013-02-04 05:34:00,26.4,-5.5,29.75,NW,321,0.0,0.0,24,0.00,,CLR,0.00,VWS V14.01,2013-02-04 10:34:00,
2013-02-04 05:39:00,27.1,-5.7,29.75,ESE,106,2.2,3.1,23,0.00,,CLR,0.00,VWS V14.01,2013-02-04 10:39:00,
2013-02-04 05:44:00,27.9,-5.1,29.75,East,88,2.7,2.7,23,0.00,,CLR,0.00,VWS V14.01,2013-02-04 10:44:00,
2013-02-04 05:49:00,28.6,-4.5,29.72,ESE,104,0.0,0.0,23,0.00,,CLR,0.00,VWS V14.01,2013-02-04 10:49:00,
2013-02-04 05:55:00,28.6,-4.5,29.72,ESE,123,0.0,0.0,23,0.00,,CLR,0.00,VWS V14.01,2013-02-04 10:55:00,
2013-02-04 06:00:00,28.2,-4.8,29.75,ESE,123,0.0,0.0,23,0.00,,CLR,0.00,VWS V14.01,2013-02-04 11:00:00,
2013-02-04 06:05:00,28.2,-4.8,29.75,ESE,123,0.0,0.0,23,0.00,,CLR,0.00,VWS V14.01,2013-02-04 11:05:00,
2013-02-04 06:10:00,28.6,-4.5,29.75,ESE,123,0.0,0.0,23,0.00,,CLR,0.00,VWS V14.01,2013-02-04 11:10:00,
2013-02-04 06:15:00,28.8,-4.3,29.75,NNE,22,0.0,0.0,23,0.00,,CLR,0.00,VWS V14.01,2013-02-04 11:15:00,
2013-02-04 06:20:00,28.9,-4.2,29.75,NNE,22,0.0,0.0,23,0.00,,CLR,0.00,VWS V14.01,2013-02-04 11:20:00,
2013-02-04 06:25:00,28.9,-4.2,29.75,NNE,22,0.0,0.0,23,0.00,,CLR,0.00,VWS V14.01,2013-02-04 11:25:00,
2013-02-04 06:31:00,30.7,-2.7,29.75,NNE,22,0.0,0.0,23,0.00,,CLR,0.00,VWS V14.01,2013-02-04 11:31:00,
2013-02-04 06:36:00,30.7,-2.7,29.75,NNE,22,0.0,0.0,23,0.00,,CLR,0.00,VWS V14.01,2013-02-04 11:36:00,
2013-02-04 06:41:00,30.6,-2.8,29.75,NNE,22,0.0,0.0,23,0.00,,CLR,0.00,VWS V14.01,2013-02-04 11:41:00,
2013-02-04 06:46:00,30.6,-2.8,29.75,NNE,22,0.0,0.0,23,0.00,,CLR,0.00,VWS V14.01,2013-02-04 11:46:00,
2013-02-04 06:51:00,30.6,-2.8,29.75,NNE,22,0.0,0.0,23,0.00,,CLR,0.00,VWS V14.01,2013-02-04 11:51:00,
2013-02-04 06:56:00,29.8,-3.4,29.75,NNE,22,0.0,0.0,23,0.00,,CLR,0.00,VWS V14.01,2013-02-04 11:56:00,
2013-02-04 07:01:00,29.7,-3.6,29.78,NNE,22,0.0,0.0,23,0.00,,CLR,0.00,VWS V14.01,2013-02-04 12:01:00,
2013-02-04 07:07:00,29.7,-3.6,29.78,NNE,22,0.0,0.0,23,0.00,,CLR,0.00,VWS V14.01,2013-02-04 12:07:00,
2013-02-04 07:12:00,29.7,-3.6,29.78,NNE,22,0.0,0.0,23,0.00,,CLR,0.00,VWS V14.01,2013-02-04 12:12:00,
2013-02-04 07:17:00,29.8,-3.4,29.78,NNE,22,0.0,0.0,23,0.00,,CLR,0.00,VWS V14.01,2013-02-04 12:17:00,
2013-02-04 07:22:00,29.7,-3.6,29.78,NNE,22,0.0,0.0,23,0.00,,CLR,0.00,VWS V14.01,2013-02-04 12:22:00,
2013-02-04 07:27:00,29.5,-3.7,29.78,NNE,22,0.0,0.0,23,0.00,,CLR,0.00,VWS V14.01,2013-02-04 12:27:00,
2013-02-04 07:32:00,29.1,-4.1,29.81,NNE,22,0.0,0.0,23,0.00,,CLR,0.00,VWS V14.01,2013-02-04 12:32:00,
2013-02-04 07:37:00,29.1,-4.1,29.81,NNE,22,0.0,0.0,23,0.00,,CLR,0.00,VWS V14.01,2013-02-04 12:37:00,
2013-02-04 07:42:00,29.1,-4.1,29.81,NNE,22,0.0,0.0,23,0.00,,CLR,0.00,VWS V14.01,2013-02-04 12:42:00,
2013-02-04 07:47:00,30.2,-3.1,29.81,NNE,22,0.0,0.0,23,0.00,,CLR,0.00,VWS V14.01,2013-02-04 12:47:00,
2013-02-04 07:53:00,30.4,-3.0,29.81,NNE,22,0.0,0.0,23,0.00,,CLR,0.00,VWS V14.01,2013-02-04 12:53:00,
2013-02-04 07:58:00,31.3,-2.2,29.81,NNE,22,0.0,0.0,23,0.00,,CLR,0.00,VWS V14.01,2013-02-04 12:58:00,
2013-02-04 08:03:00,31.3,-2.2,29.81,NNE,22,0.0,0.0,23,0.00,,CLR,0.00,VWS V14.01,2013-02-04 13:03:00,
2013-02-04 08:08:00,31.6,-1.9,29.81,NNE,22,0.0,0.0,23,0.00,,CLR,0.00,VWS V14.01,2013-02-04 13:08:00,
2013-02-04 08:13:00,32.0,-1.6,29.81,NNE,22,0.0,0.0,23,0.00,,CLR,0.00,VWS V14.01,2013-02-04 13:13:00,
2013-02-04 08:18:00,32.0,-1.6,29.81,NNE,22,0.0,0.0,23,0.00,,CLR,0.00,VWS V14.01,2013-02-04 13:18:00,
2013-02-04 08:23:00,32.5,-1.1,29.81,NNE,22,0.0,0.0,23,0.00,,CLR,0.00,VWS V14.01,2013-02-04 13:23:00,
2013-02-04 08:28:00,32.7,-1.0,29.81,NNE,22,0.0,0.0,23,0.00,,CLR,0.00,VWS V14.01,2013-02-04 13:28:00,
2013-02-04 08:33:00,33.3,-0.5,29.81,NNE,22,0.0,0.0,23,0.00,,CLR,0.00,VWS V14.01,2013-02-04 13:33:00,
2013-02-04 08:38:00,33.4,-0.4,29.81,NNE,22,0.0,0.0,23,0.00,,CLR,0.00,VWS V14.01,2013-02-04 13:38:00,
2013-02-04 08:43:00,33.4,-0.4,29.81,NNE,22,0.0,0.0,23,0.00,,CLR,0.00,VWS V14.01,2013-02-04 13:43:00,
2013-02-04 08:48:00,33.4,-0.4,29.81,NNE,22,0.0,0.0,23,0.00,,CLR,0.00,VWS V14.01,2013-02-04 13:48:00,
2013-02-04 08:53:00,33.4,-0.4,29.81,NNE,22,0.0,0.0,23,0.00,,CLR,0.00,VWS V14.01,2013-02-04 13:53:00,
2013-02-04 08:58:00,33.6,-0.2,29.81,NNE,22,0.0,0.0,23,0.00,,CLR,0.00,VWS V14.01,2013-02-04 13:58:00,
2013-02-04 09:03:00,34.0,-0.9,29.81,NNE,22,0.0,0.0,22,0.00,,CLR,0.00,VWS V14.01,2013-02-04 14:03:00,
2013-02-04 09:09:00,34.0,-0.9,29.81,NNE,22,0.0,0.0,22,0.00,,CLR,0.00,VWS V14.01,2013-02-04 14:09:00,
2013-02-04 09:14:00,35.1,0.1,29.81,NNE,22,0.0,0.0,22,0.00,,CLR,0.00,VWS V14.01,2013-02-04 14:14:00,
2013-02-04 09:19:00,35.2,0.2,29.81,NNE,22,0.0,0.0,22,0.00,,CLR,0.00,VWS V14.01,2013-02-04 14:19:00,
2013-02-04 09:24:00,36.3,1.1,29.81,NNE,22,0.0,0.0,22,0.00,,CLR,0.00,VWS V14.01,2013-02-04 14:24:00,
2013-02-04 09:29:00,36.3,1.1,29.81,SSW,201,0.0,0.0,22,0.00,,CLR,0.00,VWS V14.01,2013-02-04 14:29:00,
2013-02-04 09:34:00,36.3,1.1,29.81,SSW,198,0.0,0.0,22,0.00,,CLR,0.00,VWS V14.01,2013-02-04 14:34:00,
2013-02-04 09:39:00,37.9,1.5,29.81,SSW,198,0.0,0.0,21,0.00,,CLR,0.00,VWS V14.01,2013-02-04 14:39:00,
2013-02-04 09:44:00,37.9,1.5,29.84,SSW,198,0.0,0.0,21,0.00,,CLR,0.00,VWS V14.01,2013-02-04 14:44:00,
2013-02-04 09:49:00,37.6,1.2,29.84,SSW,198,0.0,0.0,21,0.00,,CLR,0.00,VWS V14.01,2013-02-04 14:49:00,
2013-02-04 09:54:00,37.6,1.2,29.84,SSW,198,0.0,0.0,21,0.00,,CLR,0.00,VWS V14.01,2013-02-04 14:54:00,
2013-02-04 10:00:00,37.6,1.2,29.84,SSW,199,0.0,0.0,21,0.00,,CLR,0.00,VWS V14.01,2013-02-04 15:00:00,
2013-02-04 10:05:00,37.9,1.5,29.84,NE,41,0.0,0.0,21,0.00,,SCT110,0.00,VWS V14.01,2013-02-04 15:05:00,
2013-02-04 10:10:00,37.9,1.5,29.84,NE,41,0.0,0.0,21,0.00,,SCT110,0.00,VWS V14.01,2013-02-04 15:10:00,
2013-02-04 10:15:00,38.5,2.0,29.84,SSW,196,0.0,0.0,21,0.00,,SCT110,0.00,VWS V14.01,2013-02-04 15:15:00,
2013-02-04 10:20:00,39.2,2.6,29.84,SSW,197,0.0,0.0,21,0.00,,SCT110,0.00,VWS V14.01,2013-02-04 15:20:00,
2013-02-04 10:25:00,39.7,3.0,29.84,SSW,197,0.0,0.0,21,0.00,,SCT110,0.00,VWS V14.01,2013-02-04 15:25:00,
2013-02-04 10:30:00,39.7,3.0,29.84,SSW,197,0.0,0.0,21,0.00,,SCT110,0.00,VWS V14.01,2013-02-04 15:30:00,
2013-02-04 10:35:00,40.8,3.9,29.84,SSW,202,0.0,0.0,21,0.00,,SCT110,0.00,VWS V14.01,2013-02-04 15:35:00,
2013-02-04 10:40:00,41.2,4.2,29.84,SSW,204,0.0,0.0,21,0.00,,SCT110,0.00,VWS V14.01,2013-02-04 15:40:00,
2013-02-04 10:45:00,41.2,4.2,29.84,SSW,208,0.0,0.0,21,0.00,,SCT110,0.00,VWS V14.01,2013-02-04 15:45:00,
2013-02-04 10:50:00,41.5,4.5,29.84,SSE,153,0.0,0.0,21,0.00,,SCT110,0.00,VWS V14.01,2013-02-04 15:50:00,
2013-02-04 10:55:00,41.9,4.8,29.84,SSE,153,0.0,0.0,21,0.00,,SCT110,0.00,VWS V14.01,2013-02-04 15:55:00,
2013-02-04 11:00:00,42.8,4.5,29.84,SE,136,0.0,0.0,20,0.00,,CLR,0.00,VWS V14.01,2013-02-04 16:00:00,
2013-02-04 11:05:00,43.5,5.1,29.84,South,189,3.6,3.6,20,0.00,,CLR,0.00,VWS V14.01,2013-02-04 16:05:00,
2013-02-04 11:11:00,43.5,5.1,29.84,SSE,157,0.0,0.0,20,0.00,,CLR,0.00,VWS V14.01,2013-02-04 16:11:00,
2013-02-04 11:16:00,44.1,5.6,29.84,SW,225,2.2,2.7,20,0.00,,CLR,0.00,VWS V14.01,2013-02-04 16:16:00,
2013-02-04 11:21:00,44.6,6.0,29.84,SW,233,2.7,2.7,20,0.00,,CLR,0.00,VWS V14.01,2013-02-04 16:21:00,
2013-02-04 11:26:00,46.0,7.2,29.84,SSW,198,0.0,0.0,20,0.00,,CLR,0.00,VWS V14.01,2013-02-04 16:26:00,
2013-02-04 11:31:00,46.9,6.8,29.84,SSW,203,2.7,2.7,19,0.00,,CLR,0.00,VWS V14.01,2013-02-04 16:31:00,
2013-02-04 11:36:00,48.0,7.7,29.84,South,186,0.0,0.0,19,0.00,,CLR,0.00,VWS V14.01,2013-02-04 16:36:00,
2013-02-04 11:41:00,48.0,7.7,29.84,SSE,156,0.0,0.0,19,0.00,,CLR,0.00,VWS V14.01,2013-02-04 16:41:00,
2013-02-04 11:46:00,51.3,10.4,29.84,South,169,0.0,0.0,19,0.00,,CLR,0.00,VWS V14.01,2013-02-04 16:46:00,
2013-02-04 11:51:00,51.6,10.7,29.84,SSW,208,0.0,0.0,19,0.00,,CLR,0.00,VWS V14.01,2013-02-04 16:51:00,
2013-02-04 11:56:00,51.4,10.6,29.84,SSE,151,0.0,0.0,19,0.00,,CLR,0.00,VWS V14.01,2013-02-04 16:56:00,
2013-02-04 12:02:00,51.1,10.3,29.84,SW,219,0.0,0.0,19,0.00,,CLR,0.00,VWS V14.01,2013-02-04 17:02:00,
2013-02-04 12:07:00,50.9,10.1,29.84,West,270,3.6,3.6,19,0.00,,CLR,0.00,VWS V14.01,2013-02-04 17:07:00,
2013-02-04 12:12:00,50.7,10.0,29.84,SSE,156,0.0,3.6,19,0.00,,CLR,0.00,VWS V14.01,2013-02-04 17:12:00,
2013-02-04 12:17:00,51.6,10.7,29.84,SE,126,3.6,3.6,19,0.00,,CLR,0.00,VWS V14.01,2013-02-04 17:17:00,
2013-02-04 12:22:00,51.6,10.7,29.84,ESE,116,2.7,2.7,19,0.00,,CLR,0.00,VWS V14.01,2013-02-04 17:22:00,
2013-02-04 12:27:00,52.5,10.2,29.84,SE,137,2.7,2.7,18,0.00,,CLR,0.00,VWS V14.01,2013-02-04 17:27:00,
2013-02-04 12:32:00,52.7,10.4,29.81,SSW,213,3.1,3.1,18,0.00,,CLR,0.00,VWS V14.01,2013-02-04 17:32:00,
2013-02-04 12:37:00,52.9,10.6,29.81,South,170,2.7,2.7,18,0.00,,CLR,0.00,VWS V14.01,2013-02-04 17:37:00,
2013-02-04 12:42:00,53.1,10.7,29.81,SE,139,2.7,2.7,18,0.00,,CLR,0.00,VWS V14.01,2013-02-04 17:42:00,
2013-02-04 12:47:00,53.6,11.1,29.81,SSE,160,3.1,3.1,18,0.00,,CLR,0.00,VWS V14.01,2013-02-04 17:47:00,
2013-02-04 12:53:00,53.8,11.3,29.81,SSE,160,4.0,4.0,18,0.00,,CLR,0.00,VWS V14.01,2013-02-04 17:53:00,
2013-02-04 12:58:00,55.8,11.6,29.81,SW,227,3.6,3.6,17,0.00,,CLR,0.00,VWS V14.01,2013-02-04 17:58:00,
2013-02-04 13:03:00,56.8,12.5,29.81,West,265,4.0,4.0,17,0.00,,CLR,0.00,VWS V14.01,2013-02-04 18:03:00,
2013-02-04 13:08:00,57.6,13.1,29.81,SW,229,2.7,2.7,17,0.00,,CLR,0.00,VWS V14.01,2013-02-04 18:08:00,
2013-02-04 13:13:00,58.1,13.5,29.81,South,177,4.0,4.0,17,0.00,,CLR,0.00,VWS V14.01,2013-02-04 18:13:00,
2013-02-04 13:18:00,58.8,14.1,29.81,SSW,210,3.1,3.1,17,0.00,,CLR,0.00,VWS V14.01,2013-02-04 18:18:00,
2013-02-04 13:23:00,59.4,14.6,29.81,SE,141,3.1,3.1,17,0.00,,CLR,0.00,VWS V14.01,2013-02-04 18:23:00,
2013-02-04 13:28:00,59.5,17.3,29.78,WSW,244,4.0,4.0,19,0.00,,CLR,0.00,VWS V14.01,2013-02-04 18:28:00,
2013-02-04 13:33:00,59.0,14.3,29.78,South,183,2.7,2.7,17,0.00,,CLR,0.00,VWS V14.01,2013-02-04 18:33:00,
2013-02-04 13:38:00,56.7,12.4,29.78,SSE,148,2.7,3.6,17,0.00,,CLR,0.00,VWS V14.01,2013-02-04 18:38:00,
2013-02-04 13:43:00,55.8,11.6,29.78,SSE,164,5.4,5.8,17,0.00,,CLR,0.00,VWS V14.01,2013-02-04 18:43:00,
2013-02-04 13:48:00,54.9,12.2,29.78,South,184,3.1,3.1,18,0.00,,CLR,0.00,VWS V14.01,2013-02-04 18:48:00,
2013-02-04 13:54:00,54.9,12.2,29.78,South,191,3.1,6.3,18,0.00,,CLR,0.00,VWS V14.01,2013-02-04 18:54:00,
2013-02-04 13:59:00,55.2,12.5,29.78,SW,226,2.2,4.0,18,0.00,,CLR,0.00,VWS V14.01,2013-02-04 18:59:00,
2013-02-04 14:04:00,55.4,11.3,29.78,ESE,113,2.7,2.7,17,0.00,,CLR,0.00,VWS V14.01,2013-02-04 19:04:00,
2013-02-04 14:09:00,54.5,11.9,29.78,SE,141,2.7,2.7,18,0.00,,CLR,0.00,VWS V14.01,2013-02-04 19:09:00,
2013-02-04 14:14:00,54.1,11.6,29.78,ESE,117,4.0,4.0,18,0.00,,CLR,0.00,VWS V14.01,2013-02-04 19:14:00,
2013-02-04 14:19:00,54.0,11.4,29.78,South,177,5.4,6.3,18,0.00,,CLR,0.00,VWS V14.01,2013-02-04 19:19:00,
2013-02-04 14:24:00,53.1,10.7,29.78,SSE,167,4.0,4.0,18,0.00,,CLR,0.00,VWS V14.01,2013-02-04 19:24:00,
2013-02-04 14:29:00,52.9,10.6,29.78,SW,214,5.8,5.8,18,0.00,,CLR,0.00,VWS V14.01,2013-02-04 19:29:00,
2013-02-04 14:35:00,52.2,10.0,29.78,SSE,159,4.0,7.6,18,0.00,,CLR,0.00,VWS V14.01,2013-02-04 19:35:00,
2013-02-04 14:40:00,51.6,10.7,29.78,SSE,158,5.4,5.4,19,0.00,,CLR,0.00,VWS V14.01,2013-02-04 19:40:00,
2013-02-04 14:45:00,51.4,10.6,29.78,ESE,119,5.8,5.8,19,0.00,,CLR,0.00,VWS V14.01,2013-02-04 19:45:00,
2013-02-04 14:50:00,51.1,10.3,29.78,South,171,5.4,5.4,19,0.00,,CLR,0.00,VWS V14.01,2013-02-04 19:50:00,
2013-02-04 14:55:00,51.1,10.3,29.78,SE,139,2.2,2.2,19,0.00,,CLR,0.00,VWS V14.01,2013-02-04 19:55:00,
2013-02-04 15:00:00,50.4,9.7,29.78,West,261,2.7,2.7,19,0.00,,CLR,0.00,VWS V14.01,2013-02-04 20:00:00,
2013-02-04 15:05:00,49.6,9.1,29.78,SW,231,4.9,4.9,19,0.00,,FEW100,0.00,VWS V14.01,2013-02-04 20:05:00,
2013-02-04 15:10:00,49.3,8.8,29.78,SSE,159,2.7,2.7,19,0.00,,FEW100,0.00,VWS V14.01,2013-02-04 20:10:00,
2013-02-04 15:15:00,48.9,8.5,29.75,SSE,151,3.1,3.1,19,0.00,,FEW100,0.00,VWS V14.01,2013-02-04 20:15:00,
2013-02-04 15:20:00,49.3,8.8,29.75,SSE,157,3.6,5.4,19,0.00,,FEW100,0.00,VWS V14.01,2013-02-04 20:20:00,
2013-02-04 15:26:00,49.8,9.2,29.75,South,173,0.0,0.0,19,0.00,,FEW100,0.00,VWS V14.01,2013-02-04 20:26:00,
2013-02-04 15:31:00,50.2,9.5,29.75,SE,126,4.0,4.0,19,0.00,,FEW100,0.00,VWS V14.01,2013-02-04 20:31:00,
2013-02-04 15:36:00,50.2,9.5,29.75,SSW,205,3.6,3.6,19,0.00,,FEW100,0.00,VWS V14.01,2013-02-04 20:36:00,
2013-02-04 15:41:00,49.1,8.6,29.75,SE,146,2.7,2.7,19,0.00,,FEW100,0.00,VWS V14.01,2013-02-04 20:41:00,
2013-02-04 15:46:00,48.7,8.3,29.78,SSE,152,0.0,0.0,19,0.00,,FEW100,0.00,VWS V14.01,2013-02-04 20:46:00,
2013-02-04 15:51:00,46.9,6.8,29.78,South,181,2.2,2.7,19,0.00,,FEW100,0.00,VWS V14.01,2013-02-04 20:51:00,
2013-02-04 15:56:00,46.0,7.2,29.78,South,169,0.0,0.0,20,0.00,,FEW100,0.00,VWS V14.01,2013-02-04 20:56:00,
2013-02-04 16:01:00,45.7,6.9,29.78,SSE,159,3.1,3.6,20,0.00,,FEW120,0.00,VWS V14.01,2013-02-04 21:01:00,
2013-02-04 16:07:00,45.1,6.5,29.78,SE,124,3.1,3.1,20,0.00,,FEW120,0.00,VWS V14.01,2013-02-04 21:07:00,
2013-02-04 16:12:00,44.8,6.2,29.78,SE,138,0.0,0.0,20,0.00,,FEW120,0.00,VWS V14.01,2013-02-04 21:12:00,
2013-02-04 16:17:00,44.1,5.6,29.78,SSW,193,2.7,4.0,20,0.00,,FEW120,0.00,VWS V14.01,2013-02-04 21:17:00,
2013-02-04 16:22:00,43.0,4.7,29.78,SSE,155,3.1,3.1,20,0.00,,FEW120,0.00,VWS V14.01,2013-02-04 21:22:00,
2013-02-04 16:27:00,42.6,5.4,29.78,ESE,122,0.0,0.0,21,0.00,,FEW120,0.00,VWS V14.01,2013-02-04 21:27:00,
2013-02-04 16:32:00,42.3,5.1,29.75,ESE,122,0.0,0.0,21,0.00,,FEW120,0.00,VWS V14.01,2013-02-04 21:32:00,
2013-02-04 16:37:00,42.1,5.0,29.75,South,182,2.7,2.7,21,0.00,,FEW120,0.00,VWS V14.01,2013-02-04 21:37:00,
2013-02-04 16:42:00,41.9,4.8,29.75,South,182,0.0,0.0,21,0.00,,FEW120,0.00,VWS V14.01,2013-02-04 21:42:00,
2013-02-04 16:47:00,41.9,4.8,29.78,SE,146,3.1,3.1,21,0.00,,FEW120,0.00,VWS V14.01,2013-02-04 21:47:00,
2013-02-04 16:52:00,41.5,4.5,29.78,SE,125,0.0,0.0,21,0.00,,FEW120,0.00,VWS V14.01,2013-02-04 21:52:00,
2013-02-04 16:57:00,41.2,4.2,29.78,SE,127,0.0,0.0,21,0.00,,FEW120,0.00,VWS V14.01,2013-02-04 21:57:00,
2013-02-04 17:03:00,41.0,4.1,29.75,SE,146,0.0,0.0,21,0.00,,SCT100,0.00,VWS V14.01,2013-02-04 22:03:00,
2013-02-04 17:08:00,40.6,3.8,29.75,SSE,160,6.3,6.3,21,0.00,,SCT100,0.00,VWS V14.01,2013-02-04 22:08:00,
2013-02-04 17:13:00,40.3,3.5,29.75,SSE,161,2.2,2.2,21,0.00,,SCT100,0.00,VWS V14.01,2013-02-04 22:13:00,
2013-02-04 17:18:00,39.9,3.2,29.75,ESE,120,3.1,4.0,21,0.00,,SCT100,0.00,VWS V14.01,2013-02-04 22:18:00,
2013-02-04 17:23:00,39.2,2.6,29.75,SW,235,3.1,3.1,21,0.00,,SCT100,0.00,VWS V14.01,2013-02-04 22:23:00,
2013-02-04 17:28:00,38.7,2.1,29.75,SSW,205,3.6,3.6,21,0.00,,SCT100,0.00,VWS V14.01,2013-02-04 22:28:00,
2013-02-04 17:33:00,38.1,1.6,29.75,ESE,102,2.7,2.7,21,0.00,,SCT100,0.00,VWS V14.01,2013-02-04 22:33:00,
2013-02-04 17:38:00,37.6,1.2,29.75,SE,142,0.0,0.0,21,0.00,,SCT100,0.00,VWS V14.01,2013-02-04 22:38:00,
2013-02-04 17:43:00,37.0,1.7,29.75,SE,136,0.0,0.0,22,0.00,,SCT100,0.00,VWS V14.01,2013-02-04 22:43:00,
2013-02-04 17:48:00,36.5,1.3,29.75,SW,222,0.0,2.2,22,0.00,,SCT100,0.00,VWS V14.01,2013-02-04 22:48:00,
2013-02-04 17:54:00,36.3,1.1,29.75,SW,222,0.0,0.0,22,0.00,,SCT100,0.00,VWS V14.01,2013-02-04 22:54:00,
2013-02-04 17:59:00,36.0,0.8,29.75,SSE,156,0.0,0.0,22,0.00,,SCT100,0.00,VWS V14.01,2013-02-04 22:59:00,
2013-02-04 18:04:00,36.0,0.8,29.75,East,101,0.0,0.0,22,0.00,,BKN120,0.00,VWS V14.01,2013-02-04 23:04:00,
2013-02-04 18:09:00,35.8,0.7,29.75,East,101,0.0,0.0,22,0.00,,BKN120,0.00,VWS V14.01,2013-02-04 23:09:00,
2013-02-04 18:14:00,35.6,0.5,29.75,East,101,0.0,0.0,22,0.00,,BKN120,0.00,VWS V14.01,2013-02-04 23:14:00,
2013-02-04 18:19:00,35.4,0.4,29.75,East,101,0.0,0.0,22,0.00,,BKN120,0.00,VWS V14.01,2013-02-04 23:19:00,
2013-02-04 18:24:00,35.2,0.2,29.75,East,101,0.0,0.0,22,0.00,,BKN120,0.00,VWS V14.01,2013-02-04 23:24:00,
2013-02-04 18:30:00,35.2,0.2,29.75,East,101,0.0,0.0,22,0.00,,BKN120,0.00,VWS V14.01,2013-02-04 23:30:00,
2013-02-04 18:35:00,34.9,-0.1,29.75,East,101,0.0,0.0,22,0.00,,BKN120,0.00,VWS V14.01,2013-02-04 23:35:00,
2013-02-04 18:40:00,34.5,-0.4,29.75,East,101,0.0,0.0,22,0.00,,BKN120,0.00,VWS V14.01,2013-02-04 23:40:00,
2013-02-04 18:45:00,34.3,-0.6,29.75,East,101,0.0,0.0,22,0.00,,BKN120,0.00,VWS V14.01,2013-02-04 23:45:00,
2013-02-04 18:50:00,34.3,-0.6,29.75,East,101,0.0,0.0,22,0.00,,BKN120,0.00,VWS V14.01,2013-02-04 23:50:00,
2013-02-04 18:55:00,34.2,-0.7,29.75,East,101,0.0,0.0,22,0.00,,BKN120,0.00,VWS V14.01,2013-02-04 23:55:00,
2013-02-04 19:00:00,33.8,-1.0,29.75,East,101,0.0,0.0,22,0.00,,FEW110,0.00,VWS V14.01,2013-02-05 00:00:00,
2013-02-04 19:05:00,33.3,-0.5,29.75,East,101,0.0,0.0,23,0.00,,FEW110,0.00,VWS V14.01,2013-02-05 00:05:00,
2013-02-04 19:11:00,33.1,-0.7,29.75,East,101,0.0,0.0,23,0.00,,FEW110,0.00,VWS V14.01,2013-02-05 00:11:00,
2013-02-04 19:16:00,32.9,-0.8,29.75,East,101,0.0,0.0,23,0.00,,FEW110,0.00,VWS V14.01,2013-02-05 00:16:00,
2013-02-04 19:21:00,32.7,-1.0,29.75,East,101,0.0,0.0,23,0.00,,FEW110,0.00,VWS V14.01,2013-02-05 00:21:00,
2013-02-04 19:26:00,32.5,-1.1,29.75,ESE,108,0.0,0.0,23,0.00,,FEW110,0.00,VWS V14.01,2013-02-05 00:26:00,
2013-02-04 19:31:00,32.9,-0.8,29.75,WSW,240,0.0,0.0,23,0.00,,FEW110,0.00,VWS V14.01,2013-02-05 00:31:00,
2013-02-04 19:36:00,32.9,-0.8,29.75,WSW,240,0.0,0.0,23,0.00,,FEW110,0.00,VWS V14.01,2013-02-05 00:36:00,
2013-02-04 19:41:00,32.9,-0.8,29.75,ESE,109,0.0,0.0,23,0.00,,FEW110,0.00,VWS V14.01,2013-02-05 00:41:00,
2013-02-04 19:46:00,32.9,-0.8,29.75,ESE,109,0.0,0.0,23,0.00,,FEW110,0.00,VWS V14.01,2013-02-05 00:46:00,
2013-02-04 19:51:00,33.6,-0.2,29.75,SW,234,0.0,0.0,23,0.00,,FEW110,0.00,VWS V14.01,2013-02-05 00:51:00,
2013-02-04 19:56:00,33.6,-0.2,29.75,ESE,116,0.0,0.0,23,0.00,,FEW110,0.00,VWS V14.01,2013-02-05 00:56:00,
2013-02-04 20:02:00,33.6,-0.2,29.75,ESE,116,0.0,0.0,23,0.00,,OVC110,0.00,VWS V14.01,2013-02-05 01:02:00,
2013-02-04 20:07:00,33.4,-0.4,29.75,ESE,116,0.0,0.0,23,0.00,,OVC110,0.00,VWS V14.01,2013-02-05 01:07:00,
2013-02-04 20:12:00,33.4,-0.4,29.75,ESE,116,0.0,0.0,23,0.00,,OVC110,0.00,VWS V14.01,2013-02-05 01:12:00,
2013-02-04 20:17:00,33.4,-0.4,29.75,ESE,116,0.0,0.0,23,0.00,,OVC110,0.00,VWS V14.01,2013-02-05 01:17:00,
2013-02-04 20:22:00,33.4,-0.4,29.75,ESE,116,0.0,0.0,23,0.00,,OVC110,0.00,VWS V14.01,2013-02-05 01:22:00,
2013-02-04 20:27:00,33.3,-0.5,29.75,SSE,147,0.0,0.0,23,0.00,,OVC110,0.00,VWS V14.01,2013-02-05 01:27:00,
2013-02-04 20:32:00,33.3,-0.5,29.75,SSE,147,0.0,0.0,23,0.00,,OVC110,0.00,VWS V14.01,2013-02-05 01:32:00,
2013-02-04 20:37:00,32.9,-0.8,29.75,SSE,147,0.0,0.0,23,0.00,,OVC110,0.00,VWS V14.01,2013-02-05 01:37:00,
2013-02-04 20:43:00,32.5,-1.1,29.75,SSE,147,0.0,0.0,23,0.00,,OVC110,0.00,VWS V14.01,2013-02-05 01:43:00,
2013-02-04 20:48:00,32.2,-1.4,29.75,SW,221,0.0,0.0,23,0.00,,OVC110,0.00,VWS V14.01,2013-02-05 01:48:00,
2013-02-04 20:53:00,32.0,-1.6,29.75,SW,222,3.1,3.1,23,0.00,,OVC110,0.00,VWS V14.01,2013-02-05 01:53:00,
2013-02-04 20:58:00,32.0,-1.6,29.75,South,177,3.1,3.1,23,0.00,,OVC110,0.00,VWS V14.01,2013-02-05 01:58:00,
2013-02-04 21:03:00,32.2,-1.4,29.75,ESE,123,0.0,0.0,23,0.00,,OVC110,0.00,VWS V14.01,2013-02-05 02:03:00,
2013-02-04 21:08:00,32.2,-1.4,29.75,ESE,123,2.7,2.7,23,0.00,,OVC110,0.00,VWS V14.01,2013-02-05 02:08:00,
2013-02-04 21:13:00,32.4,-1.3,29.75,ESE,123,0.0,0.0,23,0.00,,OVC110,0.00,VWS V14.01,2013-02-05 02:13:00,
2013-02-04 21:19:00,32.7,-1.0,29.75,SE,124,0.0,0.0,23,0.00,,OVC110,0.00,VWS V14.01,2013-02-05 02:19:00,
2013-02-04 21:24:00,32.9,-0.8,29.75,ESE,112,0.0,0.0,23,0.00,,OVC110,0.00,VWS V14.01,2013-02-05 02:24:00,
2013-02-04 21:29:00,32.9,-0.8,29.75,ESE,112,0.0,0.0,23,0.00,,OVC110,0.00,VWS V14.01,2013-02-05 02:29:00,
2013-02-04 21:34:00,33.1,-0.7,29.75,ESE,112,0.0,0.0,23,0.00,,OVC110,0.00,VWS V14.01,2013-02-05 02:34:00,
2013-02-04 21:39:00,33.1,-0.7,29.75,ESE,112,0.0,0.0,23,0.00,,OVC110,0.00,VWS V14.01,2013-02-05 02:39:00,
2013-02-04 21:44:00,33.3,-0.5,29.75,ESE,112,0.0,0.0,23,0.00,,OVC110,0.00,VWS V14.01,2013-02-05 02:44:00,
2013-02-04 21:49:00,33.3,-0.5,29.75,ESE,112,0.0,0.0,23,0.00,,OVC110,0.00,VWS V14.01,2013-02-05 02:49:00,
2013-02-04 21:54:00,33.8,-1.0,29.75,ESE,112,0.0,0.0,22,0.00,,OVC110,0.00,VWS V14.01,2013-02-05 02:54:00,
2013-02-04 21:59:00,33.8,-1.0,29.75,ESE,112,0.0,0.0,22,0.00,,OVC110,0.00,VWS V14.01,2013-02-05 02:59:00,
2013-02-04 22:04:00,34.0,-0.9,29.75,ESE,112,0.0,0.0,22,0.00,,OVC110,0.00,VWS V14.01,2013-02-05 03:04:00,
2013-02-04 22:09:00,34.3,-0.6,29.75,ESE,112,0.0,0.0,22,0.00,,OVC110,0.00,VWS V14.01,2013-02-05 03:09:00,
2013-02-04 22:14:00,34.3,-0.6,29.75,ESE,112,0.0,0.0,22,0.00,,OVC110,0.00,VWS V14.01,2013-02-05 03:14:00,
2013-02-04 22:19:00,34.3,-0.6,29.75,ESE,112,0.0,0.0,22,0.00,,OVC110,0.00,VWS V14.01,2013-02-05 03:19:00,
2013-02-04 22:25:00,34.3,-0.6,29.75,ESE,112,0.0,0.0,22,0.00,,OVC110,0.00,VWS V14.01,2013-02-05 03:25:00,
2013-02-04 22:30:00,34.3,-0.6,29.75,ESE,112,0.0,0.0,22,0.00,,OVC110,0.00,VWS V14.01,2013-02-05 03:30:00,
2013-02-04 22:35:00,34.3,-0.6,29.75,ESE,112,0.0,0.0,22,0.00,,OVC110,0.00,VWS V14.01,2013-02-05 03:35:00,
2013-02-04 22:40:00,34.3,-0.6,29.75,ESE,112,0.0,0.0,22,0.00,,OVC110,0.00,VWS V14.01,2013-02-05 03:40:00,
2013-02-04 22:45:00,34.3,-0.6,29.75,ESE,112,0.0,0.0,22,0.00,,OVC110,0.00,VWS V14.01,2013-02-05 03:45:00,
2013-02-04 22:50:00,34.2,-0.7,29.75,ESE,112,0.0,0.0,22,0.00,,OVC110,0.00,VWS V14.01,2013-02-05 03:50:00,
2013-02-04 22:56:00,34.2,-0.7,29.75,ESE,112,0.0,0.0,22,0.00,,OVC110,0.00,VWS V14.01,2013-02-05 03:56:00,
2013-02-04 23:01:00,34.3,-0.6,29.75,ESE,112,0.0,0.0,22,0.00,,OVC100,0.00,VWS V14.01,2013-02-05 04:01:00,
2013-02-04 23:06:00,34.3,-0.6,29.75,ESE,112,0.0,0.0,22,0.00,,OVC100,0.00,VWS V14.01,2013-02-05 04:06:00,
2013-02-04 23:11:00,34.3,-0.6,29.75,ESE,112,0.0,0.0,22,0.00,,OVC100,0.00,VWS V14.01,2013-02-05 04:11:00,
2013-02-04 23:16:00,34.5,-0.4,29.75,ESE,112,0.0,0.0,22,0.00,,OVC100,0.00,VWS V14.01,2013-02-05 04:16:00,
2013-02-04 23:21:00,34.5,-0.4,29.75,North,7,0.0,0.0,22,0.00,,OVC100,0.00,VWS V14.01,2013-02-05 04:21:00,
2013-02-04 23:26:00,34.5,-0.4,29.75,North,7,0.0,0.0,22,0.00,,OVC100,0.00,VWS V14.01,2013-02-05 04:26:00,
2013-02-04 23:31:00,34.3,-0.6,29.75,East,90,0.0,0.0,22,0.00,,OVC100,0.00,VWS V14.01,2013-02-05 04:31:00,
2013-02-04 23:36:00,34.3,-0.6,29.75,ESE,115,0.0,0.0,22,0.00,,OVC100,0.00,VWS V14.01,2013-02-05 04:36:00,
2013-02-04 23:41:00,34.2,-0.7,29.75,ESE,115,0.0,0.0,22,0.00,,OVC100,0.00,VWS V14.01,2013-02-05 04:41:00,
2013-02-04 23:46:00,34.3,-0.6,29.75,ESE,115,0.0,0.0,22,0.00,,OVC100,0.00,VWS V14.01,2013-02-05 04:46:00,
2013-02-04 23:51:00,34.5,-0.4,29.75,ESE,115,0.0,0.0,22,0.00,,OVC100,0.00,VWS V14.01,2013-02-05 04:51:00,
2013-02-04 23:56:00,34.5,-0.4,29.75,South,191,3.1,3.1,22,0.00,,OVC100,0.00,VWS V14.01,2013-02-05 04:56:00,